Location: Betz
(49.1556°N, 2.9558°E)
Time: 13:49:22
(UTC+00:00)

RESURS DK-1 - Pass Details

Date: 18 September 2019
Orbit: 558 x 560 km, 69.9° (Epoch: 21 October)

Event Time Altitude Azimuth Distance (km) Brightness Sun altitude
Rises 21:05:17 0° 329° (NNW) 2,757 7.0 -28.9°
Reaches altitude 10° 21:07:30 10° 328° (NNW) 1,857 5.9 -29.2°
Enters shadow 21:09:52 33° 325° (NW) 954 4.0 -29.5°
